Weather History for Rochester, NY

Change the Weather History Date:

Wednesday, July 3, 2013

  Actual Average Record
Temperature  
Mean Temperature 77 °F 70 °F  
Max Temperature 87 °F 81 °F 100 °F (1911)
Min Temperature 67 °F 60 °F 48 °F (1929)
Degree Days  
Heating Degree Days 0 1  
Month to date heating degree days 0 3  
Since 1 June heating degree days 58 71  
Since 1 July heating degree days 0 3  
Cooling Degree Days 12 6  
Month to date cooling degree days 17 18  
Year to date cooling degree days 195 154  
Since 1 June cooling degree days 124 124  
Growing Degree Days 26 (Base 50)    
Moisture  
Dew Point 69 °F    
Average Humidity 81    
Maximum Humidity 100    
Minimum Humidity 62    
Precipitation  
Precipitation 2.37 in 0.11 in 2.37 in (2013)
Month to date precipitation 2.75 0.32  
Year to date precipitation 20.85 16.12  
Snow  
Snow 0.00 in 0.00 in 0.00 in ()
Month to date snowfall 0.0 0.0  
Since 1 June snowfall 0.0 0.0  
Since 1 July snowfall 0.0 0.0  
Snow Depth 0.00 in    
Sea Level Pressure  
Sea Level Pressure 30.13 in    
Wind  
Wind Speed 4 mph (South)    
Max Wind Speed 39 mph    
Max Gust Speed 58 mph    
Visibility 5 miles    
Events Fog , Rain , Thunderstorm    
T = Trace of Precipitation, MM = Missing Value Source: NWS Daily Summary

Daily Weather History Graph

Daily Weather History Graph

Search for Another Location

Airport:

Trip Planner

Search our weather history database for the weather conditions in past years. The results will help you decide how hot, cold, wet, or windy it might be!

Date:

Astronomy

Jul. 03, 2013 Rise Set
Actual Time 5:36 AM EDT 8:53 PM EDT
Civil Twilight 5:01 AM EDT 9:28 PM EDT
Nautical Twilight 4:15 AM EDT 10:14 PM EDT
Astronomical Twilight 3:19 AM EDT 11:09 PM EDT
Moon 2:16 AM EDT (7/3) 4:59 PM EDT (7/3)
Length of Visible Light 16h 27m
Length of Day
15h 17m
Waning Crescent, 18% of the Moon is Illuminated
Jul 3
Waning Crescent
Jul 8
New
Jul 15
First Quarter
Jul 22
Full
Jul 29
Last Quarter

Hourly Weather History & Observations

Time (EDT) Temp. Heat Index Dew Point Humidity Pressure Visibility Wind Dir Wind Speed Gust Speed Precip Events Conditions
12:54 AM 68.0 °F - 66.0 °F 93% 30.09 in 7.0 mi Calm Calm - 0.00 in   Overcast
1:54 AM 68.0 °F - 64.9 °F 90% 30.09 in 7.0 mi Calm Calm - N/A   Mostly Cloudy
2:40 AM 68.0 °F - 66.2 °F 94% 30.10 in 6.0 mi Calm Calm - N/A   Mostly Cloudy
2:54 AM 68.0 °F - 66.0 °F 93% 30.09 in 6.0 mi Calm Calm - 0.00 in Rain Light Rain
3:36 AM 68.0 °F - 66.2 °F 94% 30.10 in 6.0 mi Calm Calm - 0.00 in   Overcast
3:54 AM 68.0 °F - 66.0 °F 93% 30.10 in 6.0 mi ENE 3.5 mph - 0.00 in   Overcast
4:54 AM 68.0 °F - 66.0 °F 93% 30.11 in 5.0 mi ESE 3.5 mph - N/A   Overcast
5:20 AM 68.0 °F - 66.2 °F 94% 30.11 in 2.0 mi Calm Calm - N/A   Overcast
5:28 AM 66.2 °F - 66.2 °F 100% 30.11 in 1.2 mi ESE 3.5 mph - N/A   Overcast
5:54 AM 66.9 °F - 66.0 °F 97% 30.12 in 0.5 mi Calm Calm - N/A Fog Fog
6:29 AM 66.2 °F - 66.2 °F 100% 30.13 in 0.2 mi Calm Calm - N/A Fog Fog
6:43 AM 66.2 °F - 66.2 °F 100% 30.13 in 0.5 mi South 3.5 mph - N/A Fog Fog
6:50 AM 66.2 °F - 66.2 °F 100% 30.13 in 0.2 mi South 3.5 mph - N/A Fog Fog
6:54 AM 66.9 °F - 66.0 °F 97% 30.14 in 0.2 mi Calm Calm - N/A Fog Fog
7:02 AM 66.2 °F - 66.2 °F 100% 30.13 in 0.2 mi South 3.5 mph - N/A Fog Fog
7:54 AM 68.0 °F - 68.0 °F 100% 30.14 in 0.2 mi South 3.5 mph - N/A Fog Fog
8:11 AM 69.8 °F - 68.0 °F 94% 30.14 in 1.2 mi South 3.5 mph - N/A   Overcast
8:47 AM 71.6 °F - 69.8 °F 94% 30.15 in 6.0 mi Variable 3.5 mph - N/A   Mostly Cloudy
8:54 AM 71.1 °F - 69.1 °F 93% 30.16 in 6.0 mi SW 3.5 mph - N/A   Mostly Cloudy
9:54 AM 78.1 °F - 70.0 °F 76% 30.16 in 10.0 mi SSW 9.2 mph - N/A   Mostly Cloudy
10:54 AM 81.0 °F 85.2 °F 72.0 °F 74% 30.16 in 10.0 mi SW 4.6 mph - N/A   Mostly Cloudy
11:54 AM 82.9 °F 88.0 °F 72.0 °F 69% 30.15 in 10.0 mi SSW 6.9 mph - N/A   Mostly Cloudy
12:54 PM 80.1 °F 84.2 °F 73.0 °F 79% 30.15 in 8.0 mi SW 5.8 mph - 0.02 in Rain Light Rain
1:54 PM 80.1 °F 82.3 °F 66.9 °F 64% 30.14 in 10.0 mi Calm Calm - 0.01 in Rain Light Rain
2:54 PM 84.0 °F 89.6 °F 72.0 °F 67% 30.12 in 10.0 mi Calm Calm - 0.00 in   Overcast
3:54 PM 84.0 °F 89.6 °F 72.0 °F 67% 30.12 in 10.0 mi NE 8.1 mph - N/A   Mostly Cloudy
4:06 PM 80.6 °F 84.6 °F 71.6 °F 74% 30.11 in 10.0 mi NNE 13.8 mph - N/A Thunderstorm Thunderstorm
4:36 PM 75.2 °F - 69.8 °F 83% 30.15 in 0.5 mi NW 25.3 mph 34.5 mph 0.03 in Fog , Rain , Thunderstorm Heavy Thunderstorms and Rain
4:39 PM 71.6 °F - 68.0 °F 88% 30.16 in 0.2 mi NNW 36.8 mph 57.5 mph 0.13 in Fog , Rain , Thunderstorm Heavy Thunderstorms and Rain
4:43 PM 71.6 °F - 66.2 °F 83% 30.13 in 0.2 mi ESE 12.7 mph 57.5 mph 0.46 in Fog , Rain , Thunderstorm Heavy Thunderstorms and Rain
4:54 PM 73.0 °F - 68.0 °F 84% 30.12 in 3.0 mi East 12.7 mph 38.0 mph 0.87 in Rain , Thunderstorm Heavy Thunderstorms and Rain
5:38 PM 73.4 °F - 71.6 °F 94% 30.15 in 1.0 mi West 12.7 mph - 0.03 in Rain , Thunderstorm Light Thunderstorms and Rain
5:46 PM 71.6 °F - 71.6 °F 100% 30.16 in 0.5 mi SW 8.1 mph - 0.22 in Fog , Rain , Thunderstorm Heavy Thunderstorms and Rain
5:54 PM 71.1 °F - 71.1 °F 100% 30.14 in 1.0 mi NE 8.1 mph - 0.55 in Rain , Thunderstorm Heavy Thunderstorms and Rain
6:01 PM 71.6 °F - 71.6 °F 100% 30.13 in 2.0 mi East 8.1 mph - 0.08 in Rain , Thunderstorm Heavy Thunderstorms and Rain
6:07 PM 71.6 °F - 71.6 °F 100% 30.13 in 3.0 mi NE 4.6 mph - 0.09 in Rain , Thunderstorm Heavy Thunderstorms and Rain
6:32 PM 73.4 °F - 71.6 °F 94% 30.13 in 8.0 mi Calm Calm - 0.11 in Rain Light Rain
6:54 PM 73.0 °F - 70.0 °F 90% 30.14 in 4.0 mi SSE 8.1 mph - 0.14 in Rain Heavy Rain
7:31 PM 73.4 °F - 69.8 °F 88% 30.13 in 4.0 mi SSE 10.4 mph - 0.13 in Rain , Thunderstorm Heavy Thunderstorms and Rain
7:34 PM 73.4 °F - 69.8 °F 88% 30.13 in 1.0 mi SE 11.5 mph - 0.21 in Rain , Thunderstorm Heavy Thunderstorms and Rain
7:47 PM 73.4 °F - 69.8 °F 88% 30.14 in 4.0 mi Variable 3.5 mph - 0.39 in Rain , Thunderstorm Light Thunderstorms and Rain
7:54 PM 73.0 °F - 70.0 °F 90% 30.16 in 2.5 mi West 11.5 mph 21.9 mph 0.39 in Rain , Thunderstorm Light Thunderstorms and Rain
8:03 PM 73.4 °F - 69.8 °F 88% 30.16 in 1.2 mi West 16.1 mph - 0.07 in Rain , Thunderstorm Heavy Thunderstorms and Rain
8:06 PM 73.4 °F - 66.2 °F 78% 30.15 in 0.8 mi West 10.4 mph 20.7 mph 0.19 in Rain , Thunderstorm Heavy Thunderstorms and Rain
8:18 PM 73.4 °F - 66.2 °F 78% 30.14 in 4.0 mi ESE 8.1 mph - 0.37 in Rain , Thunderstorm Light Thunderstorms and Rain
8:27 PM 71.6 °F - 68.0 °F 88% 30.15 in 10.0 mi SSE 6.9 mph - 0.37 in Rain Light Rain
8:54 PM 73.0 °F - 70.0 °F 90% 30.14 in 10.0 mi Calm Calm - 0.39 in   Overcast
9:43 PM 71.6 °F - 69.8 °F 94% 30.15 in 10.0 mi SW 8.1 mph - N/A Thunderstorm Thunderstorm
9:54 PM 71.1 °F - 69.1 °F 93% 30.15 in 10.0 mi SSW 8.1 mph - N/A Thunderstorm Thunderstorm
10:12 PM 71.6 °F - 69.8 °F 94% 30.15 in 10.0 mi SW 4.6 mph - N/A   Mostly Cloudy
10:54 PM 71.1 °F - 69.1 °F 93% 30.14 in 10.0 mi Calm Calm - N/A   Mostly Cloudy
11:54 PM 70.0 °F - 69.1 °F 97% 30.14 in 10.0 mi SSW 4.6 mph - N/A   Scattered Clouds